Regional Weather Roundup
Issued by NWS

Home | Current Version | Previous Version | Text Only | Print | Product List | Glossary On
Versions: 1 2 3 4 5 6 7 8 9 10 11 12 13 14 15 16 17 18 19 20 21 22 23 24 25 26 27 28 29 30 31 32 33 34 35 36 37 38 39 40 41 42 43 44 45 46 47 48 49 50
000
ASUS43 KLOT 230106
RWRIL

ILLINOIS REGIONAL WEATHER ROUNDUP
NATIONAL WEATHER SERVICE CHICAGO/ROMEOVILLE IL
800 PM CDT TUE JUL 22 2014

NOTE: "FAIR" INDICATES FEW OR NO CLOUDS BELOW 12,000 FEET WITH NO
SIGNIFICANT WEATHER AND/OR OBSTRUCTIONS TO VISIBILITY.

* THESE STATIONS ARE NOT UNDER NWS QUALITY CONTROL. THEY ALSO MAY NOT
  REPORT WEATHER SUCH AS PRECIPITATION OR FOG.

ILZ001-002-007-009-015-016-024-230200-
NORTHWEST ILLINOIS

CITY           SKY/WX    TMP DP  RH WIND       PRES   REMARKS
MOLINE         MOCLDY    84  78  82 SW6       29.97R HX  95
STERLING*      MOCLDY    82  75  78 W6        29.97S HX  89
SAVANNA*       PTCLDY    87  77  72 CALM      29.96R HX  97
$$

ILZ003-004-008-010-011-017-018-230200-
NORTH CENTRAL ILLINOIS

CITY           SKY/WX    TMP DP  RH WIND       PRES   REMARKS
ROCKFORD       MOCLDY    86  79  79 SW3       29.96S HX  99
FREEPORT*      PTCLDY    81  77  86 W6        29.99R HX  89
ROCHELLE*      MOCLDY    82  75  79 SW9       29.98R HX  89
DE KALB*       MOCLDY    82  75  80 SW12      29.98R HX  88
PERU*          CLOUDY    83  74  75 W13       29.99R HX  90
$$

ILZ005-006-012>014-019>023-230200-
NORTHEAST ILLINOIS

CITY           SKY/WX    TMP DP  RH WIND       PRES   REMARKS
CHICAGO-OHARE  MOCLDY    86  72  62 W12       29.94S HX  92
CHICAGO-MIDWAY PTCLDY    87  75  67 SW12      29.94S HX  96
AURORA         MOCLDY    84  75  74 SW7       29.96S HX  92
LANSING*       CLOUDY    83  72  69 SW7       29.97R HX  88
JOLIET*        PTCLDY    82  73  72 SW5       29.97S HX  88
WAUKEGAN       PTCLDY    85  75  72 VRB6      29.93S HX  93
DUPAGE AIRPORT MOCLDY    85  75  72 SW12      29.95S HX  93
KANKAKEE*      CLEAR     79  74  85 SW5       29.99R HX  83
WHEELING       MOCLDY    88  74  63 SW7       29.95S HX  96
MORRIS*        PTCLDY    82  76  79 SW7       29.97R HX  90
ROMEOVILLE*    PTCLDY    83  73  71 SW7       29.96S HX  88
NORTHERLY ISL    N/A     85  72  65 SW6         N/A  HX  91
$$

LMZ740>746-230200-
SOUTHERN LAKE MICHIGAN

STATION/POSITION SKY/WX   TEMP    WIND        PRES    VSBY  WAVE
                          AIR SEA DIR/SP/G                  HT/PER
                          (F)     (DEG/KT/KT) (MB)    (MI)  (FT/S)
SOUTHERN BUOY              71 66  200/  8/ 10 1013.2S         1/ 4
WAUKEGAN HARBOR            86     220/  5/  8 1014.2F
HARRISON CRIB              84     220/ 16/ 19   N/A
BURNHAM HARBOR             85     200/  7/ 13   N/A
CALUMET HARBOR             84     200/  8/ 11 1013.1F
MICHIGAN CITY              82     190/ 13/ 17   N/A
$$

ILZ025>027-034>036-040-047-049-050-058-095>099-230200-
WEST-CENTRAL ILLINOIS

CITY           SKY/WX    TMP DP  RH WIND       PRES   REMARKS
QUINCY         CLOUDY    84  78  82 NE5       30.01R HX  95
GALESBURG*     MOCLDY    80  76  87 S3        30.00S HX  84
MACOMB*        MOCLDY    80  76  89 SW5       30.02S FOG     HX  85
JACKSONVILLE*  CLOUDY    83  77  81 S5        30.01F HX  91
PITTSFIELD*    CLOUDY    83  76  80 CALM      30.02S HX  91
$$

ILZ028>032-037-038-041>044-048-051>054-059>061-230200-
CENTRAL ILLINOIS

CITY           SKY/WX    TMP DP  RH WIND       PRES   REMARKS
PONTIAC        PTCLDY    82  75  78 SW3       29.99R HX  89
BLOOMINGTON    MOCLDY    80  73  79 SW10      30.01S HX  84
PEORIA         CLOUDY    83  74  74 W5        30.00R HX  89
LACON*         CLOUDY    81  73  77 SW6       29.99R HX  85
LINCOLN*       MOCLDY    82  74  76 CALM      29.96S HX  89
SPRINGFIELD    MOCLDY    83  72  69 S7        30.00S HX  88
TAYLORVILLE    MOCLDY    79  72  78 S7        30.01F HX  82
$$

ILZ033-039-045-046-055>057-062-063-230200-
EAST-CENTRAL ILLINOIS

CITY           SKY/WX    TMP DP  RH WIND       PRES   REMARKS
CHAMPAIGN      MOCLDY    80  72  76 S8        30.00F HX  84
RANTOUL*       PTCLDY    79  70  74 S5        30.00F HX  82
MATTOON        PTCLDY    81  69  67 S6        30.02F HX  84
PARIS*         CLEAR     77  73  88 S5        30.03F FOG
$$

ILZ079-100>102-230200-
SOUTHWEST ILLINOIS

CITY           SKY/WX    TMP DP  RH WIND       PRES   REMARKS
CAHOKIA*       PTCLDY    85  71  63 SE3       30.02R HX  90
SPARTA*        PTCLDY    79  70  73 SE3       30.04F HX  81
$$

ILZ064>066-069>071-074>076-080>082-084>086-088>090-092>094-230200-
SOUTH-CENTRAL ILLINOIS

CITY           SKY/WX    TMP DP  RH WIND       PRES   REMARKS
CARBONDALE     CLEAR     80  70  71 W5        30.05R HX  83
CAIRO*         CLEAR     83  73  71 CALM      30.03R HX  88
MARION         CLEAR     82  72  69 CALM      30.05R HX  87
MT. VERNON     CLEAR     81  68  65 SW3       30.06R HX  83
CENTRALIA*     CLEAR     77  68  73 S5        30.05S
SALEM*         CLEAR     82  71  68 SW5       30.05F HX  86
METROPOLIS*    CLEAR     83  67  58 CALM      30.03S HX  86
$$

ILZ067-068-072-073-078-083-087-091-230200-
SOUTHEAST ILLINOIS

CITY           SKY/WX    TMP DP  RH WIND       PRES   REMARKS
FLORA*         CLEAR     82  68  62 W6        30.05S HX  85
FAIRFIELD*     CLEAR     82  75  78 CALM      30.05R HX  89
HARRISBURG*    CLEAR     81  70  69 W6        30.05R HX  84
ROBINSON*      CLEAR     81  72  74 W3        30.05S HX  85
CARMI*         CLEAR     82  74  78 W5        30.04R HX  87
$$

ABBREVIATIONS USED IN REMARKS
   TC - TEMPERATURE IN CELSIUS
  WCI - WIND CHILL INDEX
   HX - HEAT INDEX
  VSB - VISIBILITY
$$




USA.gov is the U.S. government's official web portal to all federal, state and local government web resources and services.